White Plains, CT

4:52 PM EDT on October 19, 2019 (GMT -0400)
Westchester County

Weather History for KHPN - August, 2019

Change the Weather History Date:

Wednesday, August 14, 2019

  Actual Average Record
Temperature  
Mean Temperature 74 °F -  
Max Temperature 80 °F 79 °F 93 °F (1985)
Min Temperature 68 °F 62 °F 54 °F (1983)
Cooling Degree Days 8    
Growing Degree Days 24 (Base 50)    
Moisture  
Dew Point 69 °F    
Average Humidity 91    
Maximum Humidity 100    
Minimum Humidity 72    
Precipitation  
Precipitation 0.26 in - - ()
Sea Level Pressure  
Sea Level Pressure 29.82 in    
Wind  
Wind Speed 2 mph (East)    
Max Wind Speed 10 mph    
Max Gust Speed -    
Visibility 5 miles    
Events Fog , Rain    
Averages and records for this station are not official NWS values.
T = Trace of Precipitation, MM = Missing Value Source: NWS Daily Summary

Daily Weather History Graph

Daily Weather History Graph

Search for Another Location

Airport or City:

Astronomy

Aug. 14, 2019 Rise Set
Actual Time 6:03 AM EDT 7:55 PM EDT
Civil Twilight 5:33 AM EDT 8:24 PM EDT
Nautical Twilight 4:57 AM EDT 9:00 PM EDT
Astronomical Twilight 4:18 AM EDT 9:39 PM EDT
Moon 7:48 PM EDT (8/14) 4:57 AM EDT (8/14)
Length of Visible Light 14h 51m
Length of Day
13h 51m
Waxing Gibbous, 99% of the Moon is Illuminated
Aug 14
Waxing Gibbous
Aug 15
Full
Aug 23
Last Quarter
Aug 30
New
Sep 5
First Quarter

Hourly Weather History & Observations

Time (EDT) Temp. Dew Point Humidity Pressure Visibility Wind Dir Wind Speed Gust Speed Precip Events Conditions
12:56 AM 70.0 °F 69.1 °F 97% 29.78 in 4.0 mi Calm Calm - N/A   Scattered Clouds
1:34 AM 69.1 °F 68.0 °F 96% 29.78 in 2.5 mi Calm Calm - N/A   Clear
1:44 AM 69.1 °F 69.1 °F 100% 29.78 in 1.5 mi Calm Calm - N/A   Clear
1:56 AM 70.0 °F 69.1 °F 97% 29.76 in 3.0 mi Calm Calm - N/A   Clear
2:23 AM 69.1 °F 68.0 °F 96% 29.77 in 3.0 mi Calm Calm - N/A   Scattered Clouds
2:56 AM 69.1 °F 68.0 °F 96% 29.75 in 1.5 mi Calm Calm - N/A   Scattered Clouds
3:56 AM 68.0 °F 68.0 °F 100% 29.76 in 1.5 mi Calm Calm - N/A   Scattered Clouds
4:54 AM 69.8 °F 68.0 °F 94% 29.78 in 0.5 mi Calm Calm - N/A Fog Fog
5:07 AM 70.0 °F 69.1 °F 97% 29.78 in 0.8 mi Calm Calm - N/A   Mist
5:42 AM 69.1 °F 68.0 °F 96% 29.79 in 1.0 mi ENE 3.5 mph - N/A   Mist
5:56 AM 69.1 °F 69.1 °F 100% 29.78 in 0.5 mi Calm Calm - N/A Fog Fog
6:56 AM 70.0 °F 69.1 °F 97% 29.80 in 0.5 mi NNW 3.5 mph - N/A Fog Fog
7:19 AM 71.1 °F 69.1 °F 93% 29.81 in 1.0 mi North 4.6 mph - N/A   Mostly Cloudy
7:56 AM 71.1 °F 69.1 °F 93% 29.81 in 2.0 mi NE 5.8 mph - N/A   Mostly Cloudy
8:56 AM 75.0 °F 69.1 °F 82% 29.81 in 6.0 mi East 5.8 mph - N/A   Mostly Cloudy
9:56 AM 75.9 °F 68.0 °F 76% 29.83 in 6.0 mi ESE 5.8 mph - N/A   Haze
10:56 AM 75.9 °F 68.0 °F 76% 29.83 in 6.0 mi East 4.6 mph - N/A   Haze
11:56 AM 78.1 °F 69.1 °F 74% 29.82 in 7.0 mi SSE 8.1 mph - N/A   Mostly Cloudy
12:56 PM 79.0 °F 69.1 °F 72% 29.83 in 7.0 mi SSE 10.4 mph - N/A   Mostly Cloudy
1:56 PM 73.0 °F 70.0 °F 90% 29.84 in 1.5 mi East 3.5 mph - 0.01 in Rain Light Rain
2:56 PM 72.0 °F 70.0 °F 93% 29.85 in 1.5 mi SSE 3.5 mph - 0.17 in Rain Light Rain
3:56 PM 72.0 °F 70.0 °F 93% 29.86 in 1.5 mi ENE 3.5 mph - 0.08 in Rain Light Rain
4:03 PM 72.0 °F 70.0 °F 93% 29.86 in 4.0 mi Variable 4.6 mph - 0.00 in Rain Light Rain
4:56 PM 73.9 °F 71.1 °F 91% 29.86 in 10.0 mi Calm Calm - 0.00 in   Mostly Cloudy
5:56 PM 75.9 °F 71.1 °F 85% 29.86 in 10.0 mi ENE 3.5 mph - N/A   Mostly Cloudy
6:56 PM 75.0 °F 72.0 °F 90% 29.87 in 10.0 mi SE 3.5 mph - N/A   Scattered Clouds
7:56 PM 75.0 °F 71.1 °F 87% 29.87 in 10.0 mi Calm Calm - N/A   Mostly Cloudy
8:56 PM 73.0 °F 70.0 °F 90% 29.88 in 10.0 mi ENE 3.5 mph - N/A   Mostly Cloudy
9:56 PM 71.1 °F 68.0 °F 90% 29.90 in 10.0 mi NNE 3.5 mph - N/A   Clear
10:56 PM 70.0 °F 68.0 °F 93% 29.92 in 10.0 mi Calm Calm - N/A   Clear
11:56 PM 69.1 °F 66.9 °F 93% 29.93 in 10.0 mi Calm Calm - N/A   Clear